Location: Fort Wayne
(41.1310°N, 85.1290°W)
Time: 05:53:09
(UTC-04:00)

IDEFIX/ARIANE 42P - Visible Passes

Search period start: 23 October 2017 00:00
Search period end: 02 November 2017 00:00
Orbit: 786 x 802 km, 98.2° (Epoch: 22 October)

Date Brightness Start Highest point End Pass type
(mag) Time Alt. Az. Time Alt. Az. Time Alt. Az.
23 Oct 4.4 06:27:46 10° NNE 06:32:27 33° E 06:37:06 10° SSE visible
23 Oct 5.6 19:26:52 10° SW 19:30:50 21° W 19:34:48 10° NW visible
24 Oct 5.4 06:00:22 10° NE 06:03:53 18° E 06:07:23 10° SE visible
25 Oct 2.7 07:10:18 10° NNE 07:15:33 83° ESE 07:20:46 10° SSW visible
26 Oct 3.8 06:42:09 10° NNE 06:47:10 45° E 06:52:08 10° S visible
26 Oct 5.8 19:42:36 10° SW 19:45:37 15° W 19:48:40 10° NW visible
27 Oct 4.9 06:14:25 10° NE 06:18:40 25° E 06:22:53 10° SSE visible
27 Oct 5.0 19:12:33 10° SSW 19:17:02 28° W 19:21:32 10° NW visible
28 Oct 5.7 05:47:33 10° ENE 05:50:03 13° E 05:52:32 10° ESE visible
28 Oct 2.5 07:24:57 10° N 07:30:11 72° WNW 07:35:20 10° SSW visible
29 Oct 3.1 06:56:39 10° NNE 07:01:51 63° E 07:06:59 10° S visible
29 Oct 6.2 19:59:23 10° W 20:00:28 11° W 20:01:33 10° WNW visible
30 Oct 4.3 06:28:41 10° NNE 06:33:24 34° E 06:38:06 10° SSE visible
30 Oct 5.6 19:27:57 10° SW 19:31:48 20° W 19:35:40 10° NW visible
31 Oct 5.3 06:01:13 10° NE 06:04:51 19° E 06:08:26 10° SE visible
31 Oct 2.7 07:39:41 10° N 07:44:45 52° WNW 07:49:46 10° SSW visible
31 Oct 4.5 18:58:26 10° SSW 19:03:16 37° W 19:08:07 10° NNW visible
01 Nov 2.6 07:11:15 10° NNE 07:16:30 87° ESE 07:21:40 10° SSW visible
